User: anonymous   Login
Location: Mauna Kea VIS
(19.7591°N, 155.4561°W)
Time: 04:29:08
(UTC-10:00)
Language:

Cosmos 1624 Rocket - Orbit

View from above orbital plane
View from above orbital plane
View from above satellite
View from above satellite

Ground track
Ground track

The orbit data is extracted from the following two-line orbital elements,

1 15483U 85006B   14331.48900890  .00000279  00000-0  10497-3 0  3828
2 15483 074.0466 266.7208 0017679 119.0721 009.6039 14.35915430562669
Epoch (UTC): 27 November 2014 11:44:10
Eccentricity: 0.0017679
inclination: 74.0466°
perigee height: 759 km
apogee height: 784 km
right ascension of ascending node: 266.7208°
argument of perigee: 119.0721°
revolutions per day: 14.35915430
mean anomaly at epoch: 9.6039°
orbit number at epoch: 56266

The dashed part of the orbit path shows where the satellite is in the earth's shadow,  

DLR